Regional Weather Roundup
Issued by NWS Sioux Falls, SD

Home | Current Version | Previous Version | Graphics & Text | Print | Product List | Glossary Off
Versions: 1 2 3 4 5 6 7 8 9 10 11 12 13 14 15 16 17 18 19 20 21 22 23 24 25 26 27 28 29 30 31 32 33 34 35 36 37 38 39 40 41 42 43 44 45 46 47 48 49 50

000
ASUS43 KFSD 281002
RWRFSD

WEATHER ROUNDUP FOR SE SOUTH DAKOTA/SW MINNESOTA/NW IOWA
NATIONAL WEATHER SERVICE SIOUX FALLS SD
500 AM CDT THU MAY 28 2015

NOTE: "FAIR" INDICATES FEW OR NO CLOUDS BELOW 12,000 FEET WITH NO
SIGNIFICANT WEATHER AND OR OBSTRUCTIONS TO VISIBILITY.


SDZ038>040-050-052>070-281100-
SOUTHEAST SOUTH DAKOTA

CITY           SKY/WX    TMP DP  RH WIND       PRES   REMARKS
BROOKINGS      CLOUDY    63  52  67 SE8       30.02S
CHAMBERLAIN    CLOUDY    63  57  79 S10       29.95F
HURON            N/A    N/A N/A N/A MISG      29.95S
MADISON        FAIR      64  50  59 S9        30.01S
MITCHELL       MOCLDY    63  53  70 SE9       29.98S
SIOUX FALLS    MOCLDY    64  51  62 S7        30.02S
WINNER         CLOUDY    64  56  75 S14       29.94F
YANKTON        CLOUDY    64  54  68 E3        30.00S
$$

MNZ071-072-080-081-089-090-097-098-281100-
SOUTHWEST MINNESOTA

CITY           SKY/WX    TMP DP  RH WIND       PRES   REMARKS
FAIRMONT       CLEAR     57  50  77 S7        30.06R
JACKSON        CLEAR     59  52  77 S7        30.07S
LUVERNE        PTCLDY    57  52  82 CALM      30.04S
MARSHALL       PTCLDY    64  48  55 SW14      30.00S
MONTEVIDEO     MOCLDY    63  52  67 SW7       30.00S
REDWOOD FALLS  PTCLDY    63  52  67 S9        30.01S
TRACY          PTCLDY    66  51  58 SW13      30.02F
WINDOM         PTCLDY    61  52  72 CALM      30.05S
WORTHINGTON    CLEAR     61  48  63 S10       30.06S
$$

IAZ001>003-012>014-020>022-031-032-NEZ013-014-SDZ071-281100-
NORTHWEST IOWA

CITY           SKY/WX    TMP DP  RH WIND       PRES   REMARKS
DENISON        CLEAR     59  55  88 SE6       30.04F
ESTHERVILLE    CLEAR     56  52  86 S7        30.06S
SIOUX CITY     MOCLDY    59  52  77 E7        30.03F
SPENCER        CLEAR     56  51  84 SE5       30.06S
$$

ABBREVIATIONS USED IN REMARKS
   TC - TEMPERATURE IN CELSIUS
  WCI - WIND CHILL INDEX
   HX - HEAT INDEX
  VSB - VISIBILITY



USA.gov is the U.S. government's official web portal to all federal, state and local government web resources and services.